Location: Chevoux
(46.3801°N, 4.9476°E)
Time: 05:00:24
(UTC+00:00)

Envisat - Pass Details

Date: 09 December 2021
Orbit: 764 x 766 km, 98.2° (Epoch: 16 January)

Event Time Altitude Azimuth Distance (km) Brightness Sun altitude
Rises 04:05:27 0° 20° (NNE) 3,243 6.5 -31.1°
Reaches altitude 10° 04:07:56 10° 29° (NNE) 2,312 5.7 -30.7°
Maximum altitude 04:12:40 38° 97° (E) 1,163 4.3 -29.9°
Drops below altitude 10° 04:17:21 10° 165° (SSE) 2,295 5.6 -29.1°
Sets 04:19:48 0° 173° (S) 3,216 6.4 -28.6°
